Flag for Switzerland Weather past 2 weeks in Cham, Zug, Switzerland

Now
44 °F

Quite cool.


Feels Like: 40 °F
Forecast: 32 / 63 °F
Wind: 8 mph from Northeast

Location: Zurich Town / Ville.

Current Time: Apr 18, 2015 at 6:14:12 AM

Latest Report: Apr 18, 2015 at 4:00 AM


Visibility: N/A

Pressure: 30.09 "Hg

Humidity: 92%

Dew point: 42 °F

Location of ChamLocation

Historic Weather in Cham — Graph

°F

Cham temperature yesterday

Maximum temperature yesterday: 55 °F (at 1:00 AM)
Minimum temperature yesterday: 49 °F (at 11:00 PM)
Average temperature yesterday: 53 °F

Past Weeks' High & Low Weather Summary

 TemperatureHumidityPressure
High72 °F (Apr 15, 5:00 PM)100% (Apr 3, 7:00 AM)30.61 "Hg (Apr 3, 7:00 AM)
Low30 °F (Apr 6, 7:00 AM)19% (Apr 8, 6:00 PM)29.85 "Hg (Apr 4, 5:00 PM)
Average50 °F60%30.25 "Hg
* Reported Apr 3 4:00 AM — Apr 18 4:00 AM, Cham, Weather by CustomWeather, © 2015

Note: Actual official high and low records may vary slightly from our data, if they occured in-between our weather recording intervals... More about our weather records

Advertising

Cham weather history for previous 24 hours

 ConditionsComfort  
Time TempWeatherWind HumidityBarometerVisibility
4:00 AM
Sat, Apr 18
44 °FQuite cool.8 mph92%30.09 "HgN/A
3:00 AM44 °FQuite cool.6 mph93%30.09 "HgN/A
2:00 AM44 °FQuite cool.13 mph93%30.09 "HgN/A
1:00 AM49 °FCool.1 mph96%30.06 "HgN/A
12:00 AM48 °FCool.1 mph94%30.04 "HgN/A
11:00 PM
Fri, Apr 17
49 °FCool.5 mph96%30.03 "HgN/A
10:00 PM49 °FCool.6 mph96%30.01 "HgN/A
9:00 PM52 °FCool.5 mph94%29.98 "HgN/A
8:00 PM52 °FCool.3 mph95%29.97 "HgN/A
7:00 PM52 °FCool.3 mph95%29.96 "HgN/A
6:00 PM52 °FCool.3 mph95%29.96 "HgN/A
5:00 PM52 °FCool.8 mph95%29.96 "HgN/A
4:00 PM53 °FCool.5 mph93%29.96 "HgN/A
3:00 PM53 °FCool.3 mph95%29.96 "HgN/A
2:00 PM53 °FOvercast.3 mph94%29.96 "HgN/A
1:00 PM54 °FCool.8 mph89%29.96 "HgN/A
12:00 PM53 °FCool.7 mph90%29.97 "HgN/A
11:00 AM53 °FCool.3 mph93%29.96 "HgN/A
10:00 AM53 °FCool.6 mph92%29.96 "HgN/A
9:00 AM53 °FCool.3 mph90%29.96 "HgN/A
8:00 AM52 °FCool.5 mph90%29.95 "HgN/A
7:00 AM53 °FCool.5 mph91%29.94 "HgN/A
6:00 AM53 °FCool.2 mph91%29.94 "HgN/A
Weather by CustomWeather, © 2015

See weather overviewHow to use our weather pages